Location: *
(29.1167°S, 130.0000°E)
Time: 11:11:46
(UTC+00:00)

OAO 2 Rocket - Pass Details

Date: 21 July 2019
Orbit: 676 x 746 km, 35.0° (Epoch: 21 August)

Event Time Altitude Azimuth Distance (km) Brightness Sun altitude
Rises 09:57:36 0° 285° (WNW) 3,106 8.5 -16.3°
Reaches altitude 10° 10:00:03 10° 283° (WNW) 2,178 7.2 -16.8°
Maximum altitude 10:05:09 72° 198° (SSW) 737 3.4 -17.9°
Enters shadow 10:07:18 34° 122° (ESE) 1,137 3.9 -18.4°
